Wetbulb
58.48 58.31 58.20 58.34 58.24 58.00 57.91 57.85 57.94 57.98 57.80 57.79 57.40 57.26 56.98 56.99 57.36 57.50 57.42 57.50 57.40 57.24 57.77 58.58 60.55 61.80 64.58 60.43 59.89 68.15 72.57 73.74 66.56 64.81 64.12 64.80 63.87 62.07 60.07 60.33 61.84 60.08 60.70 62.91 65.31 65.72 66.64
58.24 58.28 58.44 58.10 58.00 57.82 57.54 57.55 57.70 57.67 56.98 56.93 56.72 56.62 56.59 56.49 56.84 57.11 57.17 56.91 56.63 56.95 57.51 58.75 60.82 61.58 64.01 56.08 62.53 67.13 67.12 66.70 65.45 64.44 64.30 65.42 64.44 64.34 61.98 60.61 60.25 60.90 61.73 62.37 63.17 63.24 65.02
58.44 58.39 58.22 58.15 57.95 57.66 57.51 57.53 57.44 57.26 56.70 56.26 56.24 56.41 56.43 56.52 56.60 56.77 56.55 56.24 56.28 56.93 58.09 59.69 61.33 64.12 59.71 57.04 61.91 65.20 66.29 65.36 65.50 64.41 63.41 64.89 66.22 64.22 63.07 60.65 62.20 61.18 59.86 61.82 60.51 61.35 61.74
58.30 58.28 58.06 58.01 57.98 57.77 57.42 57.38 57.28 56.73 56.35 56.19 56.21 56.36 56.30 56.26 56.38 56.26 55.89 55.66 56.14 57.39 58.99 60.65 62.18 64.33 57.81 61.00 62.56 62.84 66.62 64.75 65.30 64.59 64.02 65.45 66.70 64.93 62.67 63.35 62.19 59.60 60.00 57.43 59.81 59.50 60.50
58.46 58.34 58.26 58.22 58.13 58.00 57.66 57.30 57.13 56.46 56.11 56.28 56.13 56.18 56.06 55.94 55.96 55.83 55.38 55.24 56.89 59.64 60.98 62.35 64.38 62.68 56.73 62.17 58.18 63.20 65.40 62.32 63.13 63.42 63.43 64.16 63.91 62.46 62.33 59.07 58.10 58.73 55.24 55.52 55.99 59.37 58.41
58.37 58.38 58.32 57.81 57.88 57.75 57.67 57.53 57.17 56.19 56.58 56.38 56.55 55.93 55.52 56.05 55.51 55.38 54.86 54.74 58.52 60.14 62.25 64.49 62.88 59.54 60.37 56.31 60.02 62.84 65.09 63.53 61.08 60.61 59.83 60.18 60.75 58.83 59.24 57.88 53.08 54.96 54.60 55.10 54.81 57.29 57.71
58.34 57.99 57.69 57.67 57.77 57.77 57.51 57.34 57.04 56.22 56.75 56.59 56.34 56.16 56.07 55.47 55.55 54.74 55.92 61.66 60.68 60.70 62.47 58.83 57.55 58.19 58.60 61.67 63.03 62.01 63.82 62.13 61.44 59.29 55.62 59.04 56.28 54.56 56.35 58.40 58.05 55.12 54.74 54.71 56.55 57.91 56.99
58.45 58.03 57.75 57.72 57.75 57.43 57.30 57.18 56.87 56.45 56.42 56.40 56.35 55.99 55.67 55.10 54.85 54.47 56.89 59.86 60.47 61.73 58.54 59.98 57.62 58.89 60.55 61.78 58.76 61.15 63.72 58.95 57.97 55.41 57.72 57.07 53.78 56.95 57.72 57.45 55.74 55.13 54.39 54.81 56.13 57.49 57.08
58.33 58.20 57.79 57.63 57.41 57.22 56.92 56.89 56.39 56.19 56.36 56.30 55.94 55.67 55.37 55.07 54.14 55.12 60.69 60.61 61.66 63.65 59.12 58.47 60.16 59.57 60.04 61.31 59.01 59.51 61.56 60.08 57.50 55.52 55.58 53.98 55.32 56.44 55.16 55.14 53.48 53.62 53.72 54.94 53.97 56.14 57.77
57.98 57.97 57.55 57.55 57.32 56.92 56.85 56.57 56.20 56.23 56.08 55.74 55.29 55.21 54.70 54.01 51.48 62.77 60.49 63.71 61.78 63.31 56.16 55.94 57.69 59.30 60.73 61.03 57.64 61.86 62.45 59.97 57.05 54.84 54.71 54.19 56.13 54.09 53.62 52.72 53.95 52.11 56.83 55.10 54.41 54.32 51.47
58.11 57.90 57.60 57.38 56.94 56.73 56.51 56.28 56.30 55.77 55.49 55.39 54.86 54.43 54.04 52.11 60.84 60.55 63.46 64.93 64.37 62.88 49.24 57.60 58.09 63.39 61.26 59.10 59.71 58.73 62.35 59.72 56.14 54.71 55.44 54.31 53.53 53.38 53.23 53.72 55.04 53.92 56.96 55.68 55.47 54.24 54.18
58.09 57.85 57.62 57.38 56.94 56.59 56.20 55.96 56.08 55.60 55.09 54.92 54.09 53.67 53.55 55.41 60.52 65.50 65.46 63.83 63.03 54.27 49.08 54.77 57.43 56.52 56.97 58.61 57.94 59.57 58.91 60.91 60.20 56.47 56.25 55.95 57.81 56.34 55.93 56.67 56.59 57.01 55.62 56.20 56.48 55.34 50.56
57.83 57.62 57.46 57.24 56.91 56.24 56.02 56.04 55.78 55.17 54.53 53.92 52.82 52.65 53.82 62.23 63.12 65.61 65.68 62.13 54.00 51.17 58.30 54.54 55.57 56.66 56.64 55.59 56.44 57.20 56.50 56.13 55.55 53.86 54.29 56.60 56.59 58.08 57.52 55.14 57.18 56.12 54.15 50.45 49.99 49.90 49.61
57.61 57.44 57.16 56.81 56.41 55.98 55.94 56.04 55.67 54.98 53.82 53.03 51.37 51.41 55.44 62.56 66.12 64.99 63.22 57.97 51.95 54.51 55.08 58.18 57.29 56.76 55.00 56.55 56.57 56.79 56.37 55.27 57.74 56.28 54.37 53.26 51.62 55.79 58.16 56.45 55.82 55.59 54.52 51.14 46.64 47.54 50.86
57.25 57.07 57.00 56.69 56.14 55.92 55.98 55.78 55.23 54.49 53.58 52.52 50.61 60.02 63.05 64.87 64.60 65.24 60.43 53.91 54.05 55.66 57.28 56.10 56.75 54.96 54.64 56.06 55.93 55.56 55.61 55.88 57.08 58.13 54.16 53.60 53.00 57.31 57.38 58.44 57.99 55.91 53.44 56.99 52.29 52.84 50.52
56.48 56.69 56.86 56.67 56.29 55.97 55.99 55.70 54.90 54.19 53.25 52.28 63.13 63.95 64.10 65.34 65.64 62.94 58.90 53.23 57.62 59.15 58.51 58.23 54.28 56.35 54.38 55.21 54.89 55.23 55.74 58.12 57.33 58.90 59.98 56.87 52.81 57.35 57.59 58.32 58.28 56.82 58.16 52.79 53.37 47.89 47.12
57.16 56.77 57.12 56.73 56.18 55.93 56.11 55.76 54.72 53.70 52.44 52.61 62.96 61.17 63.67 65.90 65.09 60.70 55.62 57.11 57.74 59.47 59.50 57.35 56.26 55.32 56.21 55.37 56.28 55.62 55.99 57.51 58.12 58.13 59.70 58.64 56.31 55.38 57.58 56.23 55.34 55.91 55.08 55.63 54.93 53.10 48.81
56.99 57.05 56.99 56.87 56.26 56.11 56.03 55.46 54.31 52.70 51.20 50.24 65.55 58.00 63.87 64.95 57.66 58.86 57.07 58.48 53.26 58.37 59.69 58.71 59.41 58.37 56.58 56.37 55.94 55.49 54.91 56.94 57.85 58.46 55.99 58.73 56.22 52.62 54.42 58.31 59.55 58.09 56.43 55.70 51.53 51.58 53.34
56.79 57.01 57.13 56.87 56.39 56.25 56.09 55.29 53.74 52.20 51.61 63.80 62.94 59.78 63.76 63.11 55.89 55.78 59.40 57.54 58.04 57.94 58.02 57.90 57.05 58.75 58.76 57.28 54.85 56.30 56.19 57.73 57.10 56.77 56.30 57.37 53.71 49.66 51.00 54.39 57.20 55.43 57.00 56.88 56.36 55.34 52.31
56.56 57.03 57.06 57.01 56.61 56.23 55.87 55.01 53.55 52.44 52.17 59.35 62.70 57.29 59.55 60.53 61.65 58.62 57.05 56.84 55.93 57.85 57.53 58.73 58.19 58.89 57.51 56.03 57.51 55.86 55.71 56.77 56.31 55.78 58.31 56.85 51.98 50.57 47.54 50.57 53.15 51.80 53.54 56.10 54.47 51.23 51.96
56.52 56.97 56.30 56.99 56.85 56.48 56.07 55.17 53.82 52.42 52.04 59.40 63.65 60.55 60.95 56.60 57.10 57.69 57.93 57.28 55.54 55.11 57.70 58.79 57.26 56.66 55.90 54.17 54.62 54.11 54.58 54.82 55.31 54.69 55.04 54.37 50.61 52.34 52.15 52.04 51.85 50.67 49.82 50.24 49.82 50.71 48.48
56.45 56.65 56.20 56.85 56.93 56.64 56.11 55.32 54.39 52.58 51.37 63.64 60.56 60.12 62.59 61.31 59.25 57.87 52.96 56.00 54.82 55.48 56.63 55.70 55.70 55.10 55.10 53.79 54.10 52.86 53.32 54.41 53.74 55.88 54.96 55.13 50.79 51.63 49.66 51.31 51.27 49.08 50.37 50.28 50.07 50.00 50.01
56.31 56.35 56.69 56.48 57.01 56.71 56.33 55.69 54.80 53.02 54.13 59.35 60.42 63.58 61.61 54.49 57.91 57.33 58.08 56.46 55.44 56.23 56.28 57.00 56.01 55.12 54.18 55.16 56.05 56.45 56.44 55.90 55.12 53.96 53.53 53.07 51.57 50.34 47.74 51.16 50.42 48.00 51.67 51.90 52.03 53.33 54.37
56.24 56.29 56.31 56.87 57.19 56.79 56.59 56.01 55.34 53.94 52.54 60.38 58.84 59.69 57.87 56.97 56.55 56.69 55.64 55.95 55.10 56.06 55.77 55.71 56.25 55.13 57.22 58.57 57.11 56.38 55.62 55.07 54.79 54.45 54.86 52.23 52.60 51.69 48.21 50.27 43.35 52.23 55.53 54.28 52.42 53.30 54.64
56.20 55.93 55.63 56.25 56.87 56.83 56.73 56.44 55.85 54.62 53.27 60.09 60.17 58.75 57.68 56.19 56.66 55.17 54.48 54.88 55.58 55.90 55.00 54.75 55.60 57.11 56.99 54.63 52.12 51.54 52.14 51.98 53.32 54.26 54.40 54.19 52.75 49.57 47.11 47.01 49.40 49.94 54.19 53.23 52.40 51.56 55.20
55.92 55.88 55.56 55.75 56.25 56.89 56.72 56.71 56.06 54.99 53.65 59.74 59.91 60.90 59.03 55.49 54.91 56.22 54.56 54.70 54.37 54.63 54.12 53.21 56.80 57.26 55.47 53.28 52.47 48.08 47.49 50.11 48.99 51.07 54.67 53.88 53.88 49.80 48.15 43.89 41.78 51.07 54.16 55.23 54.91 46.92 57.22
54.86 55.51 55.53 55.42 55.83 56.51 56.56 56.33 56.09 55.62 54.15 56.26 59.58 61.22 59.73 56.10 56.95 55.87 54.43 54.94 55.93 54.53 53.22 55.01 54.48 54.60 55.12 51.97 50.05 49.25 49.21 51.70 47.01 47.76 49.94 50.95 50.78 48.22 47.81 45.48 47.57 54.40 54.12 54.58 44.67 49.03 56.25
54.13 54.56 55.31 55.13 55.29 55.98 56.39 56.19 55.87 55.49 55.15 55.24 60.74 61.51 57.65 57.32 58.55 56.54 55.69 55.33 56.19 54.96 53.18 55.37 53.14 54.12 53.58 50.83 51.05 51.44 50.62 52.71 50.55 51.26 50.10 49.32 47.10 46.40 47.58 44.82 43.27 56.10 54.64 49.43 54.25 56.92 57.26
53.84 54.09 54.80 55.22 55.19 55.58 56.16 56.19 55.77 55.55 55.09 54.13 59.50 61.68 60.55 57.54 58.84 58.99 58.26 59.14 58.23 58.49 57.17 56.31 55.20 54.16 55.30 52.83 54.30 52.57 50.84 51.22 49.95 46.40 53.13 46.86 49.54 48.23 49.62 49.88 55.57 56.56 56.08 58.01 58.41 57.76 58.35
MSLP
1021.17 1020.83 1020.49 1020.16 1019.82 1019.48 1019.13 1018.76 1018.42 1018.14 1017.86 1017.60 1017.35 1017.15 1016.88 1016.57 1016.25 1015.96 1015.73 1015.42 1015.16 1014.89 1014.55 1014.11 1013.60 1013.09 1011.71 1009.19 1006.51 1006.83 1007.46 1007.65 1007.45 1006.97 1005.62 1004.42 1003.49 1002.97 1002.02 1002.18 1002.38 1002.75 1003.06 1003.16 1003.30 1003.54 1003.63
1021.30 1020.93 1020.56 1020.21 1019.88 1019.51 1019.15 1018.73 1018.36 1018.07 1017.80 1017.53 1017.28 1017.05 1016.80 1016.52 1016.17 1015.84 1015.56 1015.30 1015.01 1014.74 1014.40 1013.94 1013.46 1013.08 1011.20 1007.74 1006.44 1006.34 1006.55 1006.86 1006.21 1006.02 1004.98 1004.57 1003.71 1003.90 1003.03 1002.54 1002.52 1002.92 1002.98 1002.84 1002.82 1002.85 1002.96
1021.43 1021.06 1020.65 1020.25 1019.86 1019.53 1019.16 1018.77 1018.38 1017.99 1017.75 1017.50 1017.18 1016.88 1016.64 1016.41 1016.07 1015.73 1015.44 1015.18 1014.88 1014.55 1014.18 1013.74 1013.38 1012.57 1009.46 1006.56 1006.43 1006.40 1006.36 1005.87 1005.72 1005.40 1004.64 1004.54 1004.50 1003.93 1003.13 1002.40 1003.00 1002.74 1002.42 1002.53 1002.80 1002.76 1002.51
1021.52 1021.15 1020.69 1020.26 1019.86 1019.50 1019.16 1018.78 1018.38 1018.00 1017.67 1017.37 1017.04 1016.73 1016.47 1016.22 1015.92 1015.59 1015.32 1014.99 1014.60 1014.26 1013.84 1013.45 1013.24 1011.67 1007.47 1006.28 1006.42 1006.46 1006.04 1005.86 1005.88 1005.60 1005.35 1005.06 1004.83 1004.24 1003.46 1003.10 1002.56 1002.27 1002.10 1001.54 1002.51 1002.69 1002.51
1021.59 1021.18 1020.74 1020.27 1019.85 1019.48 1019.12 1018.74 1018.32 1017.90 1017.55 1017.19 1016.84 1016.55 1016.28 1016.01 1015.74 1015.43 1015.13 1014.73 1014.16 1013.79 1013.50 1013.14 1012.36 1010.11 1006.15 1007.30 1006.44 1005.77 1005.69 1005.25 1005.37 1005.36 1005.44 1005.61 1004.99 1003.73 1002.90 1002.60 1001.29 1001.39 1000.88 1001.45 1001.94 1002.43 1002.35
1021.66 1021.18 1020.78 1020.33 1019.87 1019.41 1019.00 1018.59 1018.23 1017.77 1017.38 1016.97 1016.61 1016.33 1016.08 1015.80 1015.53 1015.20 1014.83 1014.52 1013.89 1013.49 1013.00 1011.67 1010.45 1008.83 1006.19 1005.21 1005.11 1005.29 1005.47 1005.28 1004.98 1004.92 1005.08 1005.04 1004.23 1003.15 1002.50 1001.63 1000.41 1000.87 1001.24 1001.53 1001.62 1001.89 1002.02
1021.77 1021.25 1020.82 1020.36 1019.88 1019.37 1018.81 1018.39 1018.04 1017.60 1017.12 1016.70 1016.32 1016.04 1015.81 1015.56 1015.36 1015.08 1014.18 1013.28 1012.80 1011.41 1009.91 1007.26 1006.34 1005.74 1005.11 1005.10 1005.45 1005.17 1005.29 1005.12 1004.85 1004.67 1004.13 1003.79 1003.20 1002.15 1001.34 1001.15 1001.66 1002.34 1002.18 1001.69 1001.43 1001.67 1001.91
1021.80 1021.34 1020.83 1020.32 1019.82 1019.28 1018.70 1018.16 1017.76 1017.32 1016.85 1016.38 1015.99 1015.73 1015.50 1015.31 1015.17 1015.05 1014.55 1010.33 1008.17 1007.92 1006.53 1006.39 1005.96 1005.65 1005.20 1004.70 1004.52 1004.52 1004.94 1004.67 1004.32 1003.70 1003.46 1002.92 1002.54 1002.02 1001.72 1002.21 1002.68 1002.35 1001.86 1001.39 1001.12 1001.35 1001.18
1021.83 1021.33 1020.80 1020.30 1019.69 1019.10 1018.56 1017.95 1017.46 1016.99 1016.52 1016.06 1015.68 1015.41 1015.20 1015.08 1014.99 1014.62 1011.32 1008.66 1008.24 1007.64 1005.77 1005.20 1004.92 1004.55 1004.56 1004.72 1003.41 1003.67 1004.61 1004.18 1003.60 1003.24 1002.70 1002.46 1001.51 1002.42 1002.47 1002.40 1002.27 1001.84 1001.45 1000.92 1001.27 1001.32 1000.19
1021.84 1021.31 1020.76 1020.19 1019.58 1018.95 1018.36 1017.73 1017.15 1016.61 1016.16 1015.72 1015.35 1015.11 1014.97 1014.87 1015.02 1010.23 1009.33 1008.24 1008.20 1007.84 1004.77 1004.26 1004.10 1003.86 1004.28 1004.02 1003.29 1003.39 1003.99 1003.68 1003.41 1002.75 1002.58 1002.19 1001.85 1002.23 1002.38 1001.99 1001.77 1000.77 1000.69 1001.24 1001.45 1000.96 999.72
1021.89 1021.30 1020.77 1020.14 1019.47 1018.80 1018.12 1017.43 1016.78 1016.19 1015.73 1015.33 1014.98 1014.81 1014.72 1015.01 1012.33 1009.20 1008.16 1007.98 1007.89 1007.65 1003.32 1002.67 1003.07 1003.93 1003.28 1003.14 1002.84 1003.46 1003.76 1003.70 1002.81 1002.49 1002.82 1001.46 1001.85 1002.10 1001.91 1001.45 1001.38 1000.91 1001.31 1001.22 1001.08 1000.48 999.48
1021.94 1021.36 1020.79 1020.10 1019.38 1018.68 1017.91 1017.16 1016.46 1015.83 1015.27 1014.86 1014.58 1014.50 1014.57 1013.96 1012.03 1008.58 1008.39 1008.07 1007.48 1005.70 1001.79 1002.09 1002.64 1003.03 1002.83 1002.80 1002.33 1003.09 1003.58 1003.66 1002.82 1002.60 1002.41 1001.86 1001.80 1001.77 1001.39 1001.40 1001.44 1001.49 1001.25 1000.63 999.92 998.90 997.83
1022.04 1021.43 1020.79 1020.10 1019.32 1018.54 1017.75 1016.98 1016.23 1015.50 1014.80 1014.31 1014.08 1014.10 1014.20 1011.07 1008.31 1008.38 1008.22 1007.45 1005.24 1002.25 1000.93 1001.42 1001.41 1001.92 1001.74 1001.74 1001.95 1002.64 1002.91 1002.93 1001.91 1001.49 1000.91 1000.79 1000.64 1000.90 1001.48 1001.15 1001.10 1001.25 1000.56 998.70 998.06 997.77 996.90
1022.08 1021.48 1020.79 1020.06 1019.28 1018.43 1017.59 1016.73 1015.93 1015.20 1014.47 1013.87 1013.46 1013.50 1012.40 1010.45 1008.95 1008.64 1007.85 1006.04 1002.89 1000.55 1000.17 1000.30 1000.51 1001.10 1000.81 1001.13 1001.26 1001.65 1001.88 1001.56 1001.73 1001.51 1000.58 999.52 999.67 1000.20 1000.54 1000.76 999.82 999.93 999.66 998.51 997.54 997.04 997.40
1022.12 1021.48 1020.78 1020.05 1019.24 1018.38 1017.49 1016.59 1015.78 1015.04 1014.37 1013.87 1013.76 1012.13 1009.88 1008.72 1009.21 1008.74 1006.77 1003.86 1001.01 1000.47 1000.10 1000.15 1000.33 1000.23 1000.27 1000.76 1000.91 1001.36 1001.44 1000.89 1001.33 1001.69 1001.17 1000.03 999.65 1000.38 1000.45 1000.25 1000.30 999.55 999.67 998.93 998.35 997.80 997.40
1022.19 1021.49 1020.76 1020.00 1019.15 1018.32 1017.45 1016.53 1015.59 1014.81 1014.08 1013.59 1011.74 1008.88 1007.79 1008.10 1008.40 1007.98 1005.78 1002.52 1001.26 1001.47 1001.29 1000.50 999.81 999.79 999.67 1000.32 1000.92 1001.01 1001.27 1002.34 1002.22 1002.88 1002.64 1001.16 1000.47 999.94 1000.04 1000.54 1000.22 999.99 999.62 999.29 998.52 998.15 997.76
1022.30 1021.55 1020.80 1019.97 1019.07 1018.17 1017.25 1016.31 1015.31 1014.42 1013.72 1013.13 1011.19 1006.81 1007.43 1007.71 1007.89 1006.55 1003.64 1001.79 1002.08 1002.18 1001.97 1000.66 999.86 999.97 999.68 1000.24 1000.59 1000.63 1001.18 1002.83 1003.36 1002.96 1003.11 1002.14 1001.43 1000.30 1000.10 999.72 999.07 999.41 999.61 999.50 999.03 998.78 998.15
1022.37 1021.66 1020.85 1020.04 1019.16 1018.19 1017.20 1016.19 1015.27 1014.37 1013.66 1013.45 1009.02 1005.41 1006.89 1007.18 1006.27 1004.42 1002.53 1002.51 1003.11 1002.05 1002.20 1001.46 1001.06 1000.43 1000.67 1001.26 1001.18 1001.59 1002.03 1002.92 1004.38 1004.04 1003.38 1002.86 1002.51 1000.80 999.90 999.39 999.28 999.67 999.91 1000.00 999.32 998.93 998.77
1022.46 1021.75 1020.99 1020.20 1019.30 1018.27 1017.18 1016.13 1015.17 1014.30 1013.73 1011.77 1007.55 1006.17 1006.54 1006.36 1004.22 1003.13 1003.06 1003.07 1002.82 1002.44 1002.37 1002.10 1001.99 1002.06 1002.31 1002.07 1002.44 1002.78 1003.19 1004.68 1005.26 1004.78 1004.72 1004.32 1003.17 1001.54 1000.14 999.22 998.84 999.52 1000.13 999.91 1000.24 999.96 999.44
1022.52 1021.87 1021.20 1020.43 1019.52 1018.50 1017.37 1016.13 1015.03 1014.24 1013.54 1012.68 1007.38 1005.18 1005.53 1005.52 1004.23 1002.78 1002.83 1002.84 1003.13 1003.61 1003.33 1003.15 1003.04 1002.98 1002.94 1002.85 1003.21 1003.19 1003.66 1004.64 1005.79 1005.71 1006.58 1006.44 1004.29 1003.03 1001.71 1000.69 1000.85 1000.92 1001.09 1001.23 1000.99 1000.50 999.96
1022.64 1022.04 1021.38 1020.66 1019.76 1018.78 1017.65 1016.42 1014.97 1013.63 1013.28 1012.68 1007.47 1005.02 1004.99 1003.96 1003.78 1003.32 1003.18 1003.17 1003.03 1003.46 1003.96 1003.96 1003.92 1003.74 1003.76 1003.59 1003.43 1003.68 1004.08 1004.60 1005.13 1006.47 1006.71 1005.90 1004.44 1003.82 1003.09 1002.70 1002.39 1002.11 1002.01 1001.89 1001.74 1001.66 1001.34
1022.76 1022.22 1021.56 1020.77 1020.02 1019.16 1018.16 1016.99 1015.56 1013.60 1011.92 1010.47 1008.85 1007.41 1005.94 1004.97 1004.97 1004.37 1004.16 1003.92 1003.72 1004.06 1004.61 1004.02 1004.51 1004.75 1005.09 1004.82 1004.69 1004.71 1005.01 1005.18 1005.45 1005.77 1006.14 1005.61 1005.20 1005.00 1004.18 1003.70 1003.08 1002.59 1002.45 1002.27 1002.15 1002.17 1002.11
1022.90 1022.38 1021.80 1021.12 1020.33 1019.45 1018.60 1017.64 1016.48 1015.19 1012.55 1010.68 1010.47 1009.00 1007.85 1006.16 1004.95 1004.52 1003.97 1004.47 1004.81 1005.64 1006.07 1005.85 1005.86 1005.94 1005.65 1005.98 1006.41 1006.38 1006.16 1005.95 1005.93 1006.16 1006.22 1006.22 1005.69 1005.25 1004.21 1003.70 1003.58 1003.17 1002.35 1002.50 1002.52 1003.10 1003.04
1023.08 1022.56 1022.01 1021.40 1020.74 1020.02 1019.17 1018.29 1017.46 1016.54 1016.08 1013.31 1012.79 1011.36 1008.32 1005.79 1005.78 1005.33 1005.72 1006.09 1006.32 1006.92 1006.72 1006.52 1006.88 1006.79 1007.52 1007.54 1007.35 1006.72 1006.35 1006.06 1006.20 1006.31 1006.29 1006.15 1006.32 1006.12 1005.09 1004.82 1003.77 1002.99 1004.08 1004.46 1004.45 1004.56 1004.47
1023.22 1022.77 1022.28 1021.71 1021.13 1020.50 1019.79 1019.06 1018.24 1017.42 1016.67 1014.69 1013.86 1012.33 1009.91 1007.19 1006.83 1006.98 1006.94 1006.87 1007.53 1008.10 1007.88 1007.53 1007.45 1008.20 1008.12 1007.82 1006.97 1006.07 1005.48 1005.98 1005.94 1006.29 1006.38 1006.25 1006.53 1005.98 1005.51 1004.66 1003.92 1003.97 1005.13 1005.51 1005.69 1005.59 1005.74
1023.32 1022.88 1022.45 1021.97 1021.45 1020.91 1020.31 1019.64 1018.97 1018.28 1017.46 1015.58 1014.55 1013.99 1011.79 1009.54 1007.73 1008.23 1007.85 1008.01 1007.35 1007.22 1007.57 1007.82 1008.68 1008.74 1008.35 1007.38 1006.29 1006.07 1004.79 1004.72 1005.34 1006.09 1007.05 1006.64 1007.21 1007.39 1006.26 1005.74 1005.08 1005.30 1006.72 1007.18 1007.02 1006.65 1007.37
1023.40 1022.99 1022.56 1022.09 1021.61 1021.14 1020.65 1020.09 1019.47 1018.81 1018.10 1017.22 1014.86 1014.79 1012.86 1010.49 1009.47 1009.46 1008.53 1008.40 1008.60 1008.35 1007.67 1008.13 1008.52 1008.43 1008.35 1007.10 1006.11 1005.45 1005.12 1005.96 1006.19 1005.95 1006.41 1006.88 1007.41 1006.87 1006.16 1005.89 1005.92 1006.98 1007.75 1007.69 1007.81 1008.38 1008.75
1023.37 1023.01 1022.61 1022.16 1021.74 1021.31 1020.84 1020.36 1019.84 1019.26 1018.62 1017.69 1015.04 1015.16 1014.47 1011.89 1010.24 1010.65 1010.26 1009.87 1009.46 1009.22 1008.28 1008.89 1008.98 1008.48 1007.87 1007.43 1006.47 1005.72 1006.44 1006.20 1006.97 1006.76 1007.19 1007.44 1007.25 1006.69 1006.31 1006.57 1007.22 1008.31 1008.46 1008.66 1008.85 1008.88 1009.01
1023.30 1022.97 1022.59 1022.19 1021.80 1021.42 1020.98 1020.53 1020.08 1019.60 1019.00 1018.33 1015.14 1014.76 1015.15 1013.79 1011.37 1011.70 1011.20 1011.40 1011.22 1010.76 1009.86 1009.55 1009.17 1009.13 1008.56 1008.11 1007.83 1007.39 1007.34 1007.30 1007.61 1007.23 1008.33 1008.30 1008.05 1008.06 1008.15 1007.29 1008.16 1008.80 1009.03 1009.19 1009.42 1009.42 1009.25
Wind_Speed
14 14 14 14 14 14 14 13 13 13 12 12 12 12 11 12 12 12 12 13 13 13 14 15 16 15 12 11 7 10 5 5 11 11 12 8 11 5 5 5 1 7 6 3 2 1 2
15 15 15 14 14 14 14 14 13 13 13 13 13 12 11 12 12 12 12 12 13 14 14 15 15 16 11 15 6 4 1 8 10 11 8 8 7 8 10 3 7 4 5 3 4 4 2
15 15 15 15 15 14 15 14 14 14 14 13 13 13 12 12 12 12 12 13 14 14 14 14 12 8 11 6 3 2 6 8 7 10 10 2 8 12 7 7 4 4 4 5 7 6 4
16 16 16 15 15 15 15 15 14 14 14 14 13 13 13 12 12 12 13 14 15 14 14 13 9 11 9 4 4 7 7 7 6 6 9 5 8 12 10 8 13 8 9 6 9 5 3
17 16 16 16 15 15 15 15 15 15 14 13 13 13 13 12 12 12 12 15 16 13 10 8 9 10 6 5 10 12 10 9 9 8 6 5 12 14 9 13 15 8 8 6 1 4 6
18 17 16 17 17 16 16 15 15 15 13 13 12 12 12 11 11 11 13 12 7 5 8 9 9 9 7 10 10 9 10 6 8 8 10 11 12 14 14 11 7 8 5 1 5 3 8
17 18 18 18 18 17 17 16 16 16 14 13 12 11 10 10 9 10 13 6 8 9 14 8 9 4 7 7 6 11 11 12 10 8 13 13 13 13 13 3 13 8 10 10 7 6 9
18 18 19 18 18 18 18 18 17 16 15 14 12 11 9 9 8 7 9 10 9 8 6 14 5 5 3 5 9 11 11 11 11 13 14 11 12 14 8 6 7 12 12 12 2 4 10
18 18 18 18 19 19 18 19 18 16 14 13 12 10 8 6 5 6 12 9 6 7 10 9 10 10 11 11 8 15 13 13 8 11 10 13 5 6 7 9 13 14 15 11 9 12 20
18 18 18 19 19 20 19 19 19 17 15 13 12 10 7 4 4 6 11 10 7 5 8 11 11 8 7 9 7 3 13 8 5 10 10 10 10 5 8 10 8 15 6 3 8 13 11
18 19 19 20 20 21 21 20 20 19 15 13 11 8 6 12 12 7 9 4 5 5 8 12 11 7 11 13 12 10 9 8 13 8 8 6 5 8 10 8 6 12 5 9 11 14 16
18 19 20 20 21 21 21 21 21 20 17 13 11 6 5 7 8 6 3 3 7 9 3 9 9 12 14 13 8 11 11 9 5 8 10 11 4 6 8 5 7 10 8 16 19 15 13
18 19 20 21 21 22 22 22 21 20 19 14 10 9 9 9 2 3 4 6 9 10 11 10 14 16 17 10 10 13 14 14 11 12 13 15 16 15 9 12 10 11 14 12 8 8 4
18 19 20 21 21 22 23 23 22 21 20 15 8 12 14 10 3 7 7 10 11 4 10 10 12 15 13 13 11 11 12 12 10 7 9 10 10 7 8 13 10 13 15 11 5 8 2
18 19 20 21 22 23 23 23 23 21 17 11 3 7 8 7 8 5 8 12 6 5 5 11 10 13 7 9 5 9 10 4 9 8 13 6 5 7 6 10 7 7 8 12 11 14 9
19 20 21 21 22 23 24 24 24 21 17 8 6 8 6 7 7 7 9 15 4 7 5 10 14 14 11 14 10 8 8 4 2 3 7 4 10 9 8 6 13 14 14 11 9 10 9
18 19 20 21 23 24 25 25 25 23 18 4 8 6 8 8 6 8 11 3 3 5 8 6 6 6 5 5 8 4 5 8 2 1 6 12 11 11 7 13 15 11 14 13 13 10 13
18 19 20 22 23 24 26 26 25 22 18 3 9 3 9 7 9 10 11 2 4 6 5 2 7 7 2 2 4 3 4 7 3 6 10 8 10 13 16 16 10 8 13 16 14 13 11
17 19 20 22 23 25 27 27 26 23 15 8 7 6 6 8 8 8 5 7 3 7 2 3 2 5 2 1 5 4 2 8 3 6 9 12 8 11 12 15 20 7 12 7 13 16 16
17 19 20 22 23 25 27 28 27 23 14 5 7 6 6 9 10 14 9 10 8 2 3 2 1 3 5 6 4 3 7 8 1 5 7 5 13 15 13 18 16 13 12 14 15 13 14
17 18 21 21 23 25 27 29 31 29 15 5 4 5 6 7 8 6 2 2 6 8 2 2 3 5 5 5 5 8 2 5 8 10 6 9 12 13 14 16 16 18 18 18 19 19 20
16 17 21 21 22 24 26 28 31 35 34 4 8 7 1 3 3 7 6 6 6 5 7 6 9 4 4 6 6 9 2 6 7 3 7 8 11 9 15 16 18 16 16 17 17 17 18
15 16 17 20 21 23 24 26 29 32 27 6 6 2 6 5 5 8 1 4 0 3 2 6 5 6 7 8 6 9 9 10 9 8 10 11 11 11 12 12 8 14 8 8 7 8 10
14 15 17 18 19 21 22 24 25 27 23 8 6 7 7 2 6 6 3 0 2 3 6 4 4 5 7 6 9 13 11 11 9 10 10 11 7 9 12 11 15 7 3 6 7 11 11
14 15 16 17 18 19 20 21 23 24 25 8 7 6 6 5 6 3 4 1 3 4 6 6 2 6 5 7 9 10 9 7 11 6 8 5 8 8 9 11 13 11 14 6 9 10 8
15 15 15 16 17 17 18 19 20 22 24 10 8 8 6 8 7 8 4 2 8 5 6 4 2 5 7 8 8 6 8 4 3 8 6 9 5 8 10 12 11 6 7 5 9 12 11
15 15 15 14 15 16 17 18 19 20 21 10 4 11 6 7 8 6 4 7 4 5 6 4 1 5 5 8 9 10 8 3 6 9 6 7 9 11 11 12 9 11 8 7 11 7 11
13 15 14 14 14 15 16 16 17 19 19 12 3 7 7 6 5 4 2 3 3 4 8 8 6 8 6 6 5 4 5 1 4 9 4 7 7 9 10 6 13 11 7 6 13 13 15
12 13 14 13 12 13 14 15 16 16 18 16 5 6 4 6 8 3 4 4 6 7 9 4 7 3 6 5 1 5 4 5 6 7 4 8 6 8 9 10 8 6 5 9 10 13 16
Wind_Direction
10 6 3 360 357 354 351 349 345 342 340 337 337 335 332 330 327 326 323 320 318 317 316 315 315 317 297 229 251 121 170 145 201 240 262 293 277 298 338 333 143 29 28 344 61 60 305
9 5 1 359 356 354 350 347 345 341 338 333 331 329 328 325 322 321 317 316 312 310 308 307 310 313 246 253 75 72 132 175 217 229 245 254 324 2 293 330 351 359 330 26 32 46 180
6 4 0 356 355 353 349 345 342 339 336 332 329 326 323 321 317 317 313 310 304 301 298 297 301 291 262 250 29 152 198 209 211 243 262 221 304 284 357 277 19 320 266 169 40 12 12
4 1 357 354 352 349 347 344 340 338 333 329 326 322 319 317 314 314 310 306 298 292 287 280 282 265 269 54 293 214 203 198 218 234 274 346 283 280 270 327 255 228 232 230 88 333 31
360 357 354 351 350 345 342 341 339 337 333 326 321 318 315 312 309 308 305 301 289 278 251 257 240 234 224 131 209 206 202 203 194 220 228 297 260 268 279 238 244 180 259 55 186 76 315
356 355 352 350 347 343 340 338 338 337 330 324 317 314 312 306 305 304 301 287 309 245 216 222 267 253 221 207 167 173 199 243 212 207 225 229 236 246 219 247 295 352 329 301 331 34 318
358 355 351 347 344 341 338 337 335 337 329 320 313 305 299 300 298 304 302 197 202 190 219 294 149 292 126 115 162 194 186 213 233 219 227 197 235 234 241 311 3 319 273 285 287 52 290
355 351 348 343 341 339 336 334 334 336 326 319 312 305 297 292 289 300 277 248 25 346 225 217 228 260 245 193 183 187 191 217 207 234 210 219 227 255 298 334 269 267 263 265 311 255 298
351 348 345 342 340 338 336 334 335 334 325 318 314 306 294 286 292 243 235 249 332 310 259 160 197 205 180 214 213 175 199 218 239 233 219 255 315 7 303 249 246 246 261 285 335 318 279
349 347 344 341 339 337 335 333 333 334 328 318 313 304 285 259 260 193 219 209 238 293 259 137 186 202 176 232 208 120 188 230 229 260 228 263 255 212 243 248 246 265 217 319 285 285 312
350 346 344 341 339 337 335 333 332 336 328 320 314 296 260 233 322 217 61 225 230 239 245 140 132 105 192 220 116 175 189 206 256 201 252 103 225 212 243 252 237 275 24 293 285 273 276
349 345 344 341 339 337 335 334 333 333 331 322 311 277 220 192 230 317 265 168 212 232 181 147 136 177 176 217 176 138 178 253 296 245 223 279 225 246 271 250 249 276 280 259 243 247 253
349 346 344 341 338 337 336 335 333 333 332 323 303 238 218 314 62 132 242 212 221 259 131 149 175 162 192 180 151 173 196 200 231 214 209 196 214 205 228 248 209 230 252 261 222 243 106
349 346 345 342 338 339 337 336 335 336 337 328 307 167 211 274 314 269 213 227 255 47 203 146 149 176 207 165 164 189 179 217 211 285 295 282 158 174 176 234 264 201 251 297 317 313 40
350 346 344 342 341 340 338 337 337 338 337 328 144 202 195 169 218 242 240 226 244 204 75 179 184 189 172 177 279 214 231 313 37 348 315 324 150 125 210 203 251 170 243 274 314 288 238
356 345 343 343 342 341 340 339 339 341 339 316 260 204 142 149 181 232 245 260 72 359 295 278 197 215 180 180 217 226 169 76 99 328 304 349 287 180 114 235 237 265 314 284 239 260 286
345 344 346 345 343 342 341 343 343 344 343 332 251 202 124 169 211 234 238 107 145 148 263 282 266 191 297 142 277 173 93 100 275 38 296 308 288 279 185 227 257 178 230 223 253 289 310
346 345 345 346 344 343 343 344 346 345 340 254 273 190 142 192 221 229 248 51 8 154 197 203 319 351 334 103 232 257 294 73 25 319 298 355 311 293 291 300 285 271 289 293 282 277 262
346 349 349 348 346 345 345 346 347 346 343 308 260 101 166 222 244 200 98 153 311 201 239 204 162 322 309 268 291 264 30 96 359 305 357 2 272 289 269 244 218 213 273 247 282 284 283
348 351 352 350 349 348 347 347 347 350 352 279 280 164 154 210 274 288 160 189 145 7 112 2 98 262 242 236 186 296 240 140 275 335 26 303 267 264 284 310 325 307 291 278 289 281 288
348 351 355 352 351 350 350 350 348 346 352 262 255 30 10 202 192 265 223 164 206 169 164 262 174 298 318 289 253 243 281 278 195 121 233 253 279 291 291 300 298 291 284 280 273 276 276
347 350 355 353 353 353 353 354 353 349 336 264 323 332 221 353 149 254 142 208 246 108 299 164 273 111 296 282 329 330 317 273 282 142 253 280 284 278 280 276 261 274 284 280 279 277 273
345 347 352 356 353 354 355 357 358 359 342 19 0 316 279 119 237 235 68 82 255 27 126 13 346 279 225 28 7 325 305 295 279 266 280 283 285 285 281 292 307 271 307 309 293 317 314
344 345 350 353 355 355 355 357 360 358 6 339 17 289 277 202 263 353 29 311 205 26 321 85 307 284 47 331 295 256 257 259 269 270 270 253 254 274 274 287 270 76 82 342 306 308 289
344 344 348 351 354 355 356 358 358 357 356 324 12 336 327 302 3 181 227 198 206 166 249 293 94 360 297 276 266 239 220 227 232 214 284 265 284 279 280 261 296 308 43 13 354 309 348
345 343 344 347 351 353 356 357 357 356 353 317 42 336 298 306 74 4 253 285 280 220 157 225 135 298 284 265 246 247 267 34 194 181 232 274 196 274 286 297 292 73 67 13 319 273 42
342 341 341 342 345 349 353 356 356 355 352 323 30 1 281 298 72 324 336 345 356 305 295 108 204 233 237 261 251 256 278 62 268 254 186 221 228 265 272 272 284 55 5 312 264 13 330
337 336 337 336 339 344 348 351 354 353 351 342 33 18 338 315 53 341 322 284 226 247 289 82 223 197 241 261 280 286 263 145 269 272 275 270 286 278 275 257 267 43 319 345 342 318 325
332 332 331 332 333 338 341 346 350 350 348 340 316 20 336 267 10 324 318 341 310 349 323 176 350 325 2 290 283 320 262 249 280 290 115 266 248 326 316 326 341 342 297 335 318 313 314